User: anonymous   Login
Location: Trois-Rivi�res
(46.3500°N, 72.5500°W)
Time: 05:36:14
(UTC-05:00)
Language:

Cosmos 1544 - Orbit

View from above orbital plane
View from above orbital plane
View from above satellite
View from above satellite

Ground track
Ground track

The orbit data is extracted from the following two-line orbital elements,

1 14819U 84027A   16037.22433488  .00004332  00000-0  17852-3 0  9993
2 14819  82.4868 166.5185 0014645 351.8949   8.2048 15.23725007740074
Epoch (UTC): 06 February 2016 05:23:02
Eccentricity: 0.0014645
inclination: 82.4868°
perigee height: 484 km
apogee height: 504 km
right ascension of ascending node: 166.5185°
argument of perigee: 351.8949°
revolutions per day: 15.23725007
mean anomaly at epoch: 8.2048°
orbit number at epoch: 74007

The dashed part of the orbit path shows where the satellite is in the earth's shadow,  

DLR